Back to catalog

SAUDICOMSAT 5

AliveCommunicationsSSO
NORAD 31124·PAYLOAD·🇸🇦 Saudi Arabia

Launched Apr 17, 2007 from Baikonur Cosmodrome

Loading…

Next Passes (next 24 hours)

TLE

FreshSource: Space-Track

Epoch: Sep 14, 2026, 08:43 UTC

1 31124U 07012H   26257.36361351  .00000392  00000-0  76146-4 0  9993
2 31124  98.3603 234.1042 0046680 203.6495 156.2563 14.68255219 36685

Track SAUDICOMSAT 5 in real time with AllMySat

Download on the App Store